Location: Dunedin
(45.8900°S, 170.5000°E)
Time: 01:41:35
(UTC+12:00)

ISS - Visible Passes

Search period start: 09 June 2026 00:00
Search period end: 19 June 2026 00:00
Orbit: 413 x 422 km, 51.6° (Epoch: 7 June)

Date Brightness Start Highest point End Pass type
(mag) Time Alt. Az. Time Alt. Az. Time Alt. Az.
12 Jun -0.6 19:51:04 10° NW 19:51:16 11° NW 19:51:16 11° NW visible
13 Jun -2.2 19:03:17 10° NNW 19:05:22 26° N 19:05:22 26° N visible
14 Jun -2.0 18:15:47 10° N 18:18:20 20° NE 18:19:24 17° ENE visible
14 Jun -0.9 19:51:23 10° WNW 19:52:20 18° WNW 19:52:20 18° WNW visible
15 Jun -3.5 19:03:13 10° NW 19:06:16 66° NNW 19:06:16 66° NNW visible
16 Jun -3.2 18:15:12 10° NW 18:18:29 47° NE 18:20:09 25° E visible
16 Jun -0.8 19:52:02 10° W 19:53:04 18° W 19:53:04 18° W visible
17 Jun -2.4 17:27:23 10° NNW 17:30:23 30° NE 17:33:25 10° ESE visible
17 Jun -3.3 19:03:40 10° W 19:06:52 54° SSW 19:06:52 54° SSW visible
18 Jun -3.7 18:15:22 10° WNW 18:18:45 77° SSW 18:20:38 25° ESE visible
18 Jun -0.7 19:52:45 10° WSW 19:53:32 15° WSW 19:53:32 15° WSW visible
